Location: New Frontier Mobile Home Park
(32.8448°N, 116.9675°W)
Time: 20:09:56
(UTC+00:00)

Cosmos 1242 Rocket - Pass Details

Date: 14 July 2020
Orbit: 448 x 487 km, 81.2° (Epoch: 13 August)

Event Time Altitude Azimuth Distance (km) Brightness Sun altitude
Rises 11:09:57 0° 347° (NNW) 2,460 6.6 -18.2°
Reaches altitude 10° 11:12:02 10° 344° (NNW) 1,587 5.5 -17.9°
Maximum altitude 11:15:26 59° 264° (W) 528 2.4 -17.4°
Enters shadow 11:16:15 44° 210° (SSW) 637 2.7 -17.3°
